Location: Olsztyn
(53.7767°N, 20.4765°E)
Time: 14:24:21
(UTC+02:00)

deb Explorer IX - All Passes

Search period start: 19 July 2024 00:00
Search period end: 29 July 2024 00:00
Orbit: 510 x 879 km, 38.7° (Epoch: 18 July)

Date Brightness Start Highest point End Pass type
(mag) Time Alt. Az. Time Alt. Az. Time Alt. Az.
19 Jul - 21:16:09 10° S 21:17:17 11° SSE 21:18:22 10° SSE daylight
19 Jul - 22:57:12 10° SSW 23:00:08 15° S 23:02:55 10° SE visible
20 Jul - 00:41:22 10° SW 00:42:56 11° SSW 00:44:27 10° S visible
20 Jul - 21:54:50 10° SSW 21:57:48 15° S 22:00:38 10° SE visible
20 Jul - 23:37:59 10° SW 23:40:40 14° S 23:43:15 10° SSE visible
21 Jul - 20:52:47 10° SSW 20:55:24 13° SSE 20:57:57 10° SE daylight
21 Jul - 22:35:04 10° SW 22:38:18 16° S 22:41:22 10° SSE visible
22 Jul - 00:20:18 10° SSW 00:21:03 10° SSW 00:21:48 10° SSW visible
22 Jul - 19:51:23 10° S 19:52:57 11° SSE 19:54:31 10° SE daylight
22 Jul - 21:32:24 10° SW 21:35:50 16° S 21:39:07 10° SE visible
22 Jul - 23:16:05 10° SW 23:18:42 14° SSW 23:21:12 10° SSE visible
23 Jul - 20:29:56 10° SSW 20:33:17 16° S 20:36:31 10° SE daylight
23 Jul - 22:12:51 10° SW 22:16:12 16° S 22:19:25 10° SSE visible
24 Jul - 19:27:49 10° SSW 19:30:41 14° SSE 19:33:29 10° SE daylight
24 Jul - 21:09:54 10° SW 21:13:36 17° S 21:17:10 10° SE daylight
24 Jul - 22:54:10 10° SW 22:56:27 12° SSW 22:58:39 10° S visible
25 Jul - 18:26:30 10° S 18:28:03 11° SSE 18:29:37 10° SE daylight
25 Jul - 20:07:09 10° SSW 20:10:55 17° S 20:14:34 10° SE daylight
25 Jul - 21:50:33 10° SW 21:53:51 16° SSW 21:57:01 10° SSE visible
26 Jul - 19:04:40 10° SSW 19:08:10 16° SSE 19:11:37 10° SE daylight
26 Jul - 20:47:20 10° SW 20:51:07 18° S 20:54:47 10° SE daylight
26 Jul - 22:32:26 10° SW 22:33:54 11° SSW 22:35:21 10° S visible
27 Jul - 18:02:35 10° S 18:05:24 14° SSE 18:08:12 10° SE daylight
27 Jul - 19:44:20 10° SW 19:48:19 18° S 19:52:11 10° SE daylight
27 Jul - 21:28:10 10° SW 21:31:13 14° SSW 21:34:10 10° SSE visible
28 Jul - 17:01:46 10° SSE 17:02:38 10° SSE 17:03:30 10° SE daylight
28 Jul - 18:41:34 10° SSW 18:45:25 18° S 18:49:14 10° SE daylight
28 Jul - 20:24:40 10° SW 20:28:23 17° S 20:32:02 10° SSE daylight
